Location: Seven Kings
(51.5667°N, 0.1000°E)
Time: 03:41:16
(UTC+00:00)

Helios 1A Rocket - Pass Details

Date: 29 October 2020
Orbit: 562 x 587 km, 98.3° (Epoch: 24 November)

Event Time Altitude Azimuth Distance (km) Brightness Sun altitude
Rises 17:14:58 0° 132° (SE) 2,796 6.1 -6.4°
Reaches altitude 10° 17:17:22 10° 120° (ESE) 1,897 5.1 -6.8°
Maximum altitude 17:20:48 27° 63° (ENE) 1,144 3.9 -7.3°
Drops below altitude 10° 17:24:15 10° 6° (N) 1,897 5.4 -7.8°
Sets 17:26:38 0° 354° (N) 2,796 6.4 -8.2°
